GW5208 Weather Reports


Display with metric or nautical units.
time (UTC)temp
F
wind
direction
speed
MPH
gust
MPH
rain 1hr
in
rain 24hr
in
rain mn
in
humidity
%
barometer
mb
20260508094525 42 347 0.0 0.0 0.00 0.00 0.00 73 1013.5
20260508093026 43 41 0.0 0.0 0.00 0.00 0.00 74 1013.6
20260508091529 44 41 0.0 0.0 0.00 0.00 0.00 75 1013.7
20260508090030 44 41 0.0 0.0 0.00 0.00 0.00 72 1013.7
20260508084524 44 41 0.0 0.0 0.00 0.00 0.00 68 1013.8
20260508083024 45 41 0.0 2.0 0.00 0.00 0.00 69 1013.8
20260508081528 45 41 0.0 2.0 0.00 0.00 0.00 66 1013.9
20260508080030 47 312 0.0 2.0 0.00 0.00 0.00 66 1013.9
20260508074527 49 281 0.0 4.0 0.00 0.00 0.00 66 1013.9
20260508073026 49 278 3.0 5.0 0.00 0.00 0.00 64 1013.8
20260508071531 50 293 1.0 4.0 0.00 0.00 0.00 60 1013.8
20260508070027 49 262 3.0 3.0 0.00 0.00 0.00 59 1013.7
20260508064519 49 340 0.0 3.0 0.00 0.00 0.00 58 1013.9
20260508063022 50 293 2.0 4.0 0.00 0.00 0.00 58 1013.6
20260508061526 50 297 1.0 4.0 0.00 0.00 0.00 58 1013.5
20260508060029 50 293 2.0 4.0 0.00 0.00 0.00 58 1013.3
20260508054529 51 298 1.0 4.0 0.00 0.00 0.00 57 1013.3
20260508053023 52 284 4.0 7.0 0.00 0.00 0.00 55 1013.3
20260508051527 52 254 4.0 6.0 0.00 0.00 0.00 57 1013.2
20260508050028 53 249 3.0 6.0 0.00 0.00 0.00 57 1012.9
20260508044530 54 239 5.0 9.0 0.00 0.00 0.00 56 1013.1
20260508043027 56 260 6.0 9.0 0.00 0.00 0.00 53 1013.0
20260508041523 56 255 6.0 9.0 0.00 0.00 0.00 48 1013.2
20260508040025 56 264 5.0 8.0 0.00 0.00 0.00 46 1013.3
20260508034528 57 266 6.0 11.0 0.00 0.00 0.00 46 1013.3
20260508033028 57 259 5.0 9.0 0.00 0.00 0.00 45 1013.2
20260508031530 57 266 6.0 9.0 0.00 0.00 0.00 47 1013.0
20260508030008 58 264 8.0 12.0 0.00 0.00 0.00 48 1012.9
20260508024512 59 271 8.0 13.0 0.00 0.00 0.00 46 1012.8
20260508023014 60 238 7.0 14.0 0.00 0.00 0.00 42 1012.4
20260508021529 61 258 9.0 17.0 0.00 0.00 0.00 39 1012.3
20260508020003 63 263 10.0 18.0 0.00 0.00 0.00 40 1012.2
20260508014508 65 276 7.0 13.0 0.00 0.00 0.00 37 1012.0
20260508013022 66 270 7.0 12.0 0.00 0.00 0.00 34 1011.8
20260508011520 67 264 6.0 12.0 0.00 0.00 0.00 33 1011.9
20260508010023 68 247 6.0 9.0 0.00 0.00 0.00 32 1011.8
20260508004509 68 253 5.0 13.0 0.00 0.00 0.00 34 1011.9
20260508003012 68 269 8.0 13.0 0.00 0.00 0.00 34 1011.8
20260508001519 68 258 5.0 14.0 0.00 0.00 0.00 35 1011.8
20260508000021 67 219 5.0 11.0 0.00 0.00 0.00 38 1012.0
20260507234508 67 211 3.0 12.0 0.00 0.00 0.00 38 1012.0
20260507233027 67 222 7.0 14.0 0.00 0.00 0.00 40 1012.0
20260507231520 65 271 11.0 17.0 0.00 0.00 0.00 44 1012.0
20260507230022 62 259 11.0 23.0 0.00 0.00 0.00 48 1011.8
20260507224529 67 266 4.0 13.0 0.00 0.00 0.00 31 1011.8
20260507223010 68 255 4.0 9.0 0.00 0.00 0.00 31 1011.7
20260507221518 68 276 2.0 8.0 0.00 0.00 0.00 31 1011.7
20260507220021 69 44 3.0 7.0 0.00 0.00 0.00 30 1011.9
20260507214527 69 290 4.0 13.0 0.00 0.00 0.00 29 1012.1
20260507213028 69 278 5.0 15.0 0.00 0.00 0.00 31 1012.1
20260507211512 69 262 10.0 15.0 0.00 0.00 0.00 29 1012.1
20260507210033 69 230 5.0 9.0 0.00 0.00 0.00 28 1012.1
20260507204523 68 288 7.0 18.0 0.00 0.00 0.00 30 1012.3
20260507203028 69 269 6.0 11.0 0.00 0.00 0.00 1012.3
20260507201525 69 269 3.0 12.0 0.00 0.00 0.00 29 1012.3
20260507200019 67 271 6.0 12.0 0.00 0.00 0.00 31 1012.3
20260507194524 68 276 3.0 15.0 0.00 0.00 0.00 30 1012.2
20260507193031 68 279 6.0 12.0 0.00 0.00 0.00 33 1012.4
20260507191528 65 251 7.0 12.0 0.00 0.00 0.00 34 1012.5
20260507190027 66 265 8.0 13.0 0.00 0.00 0.00 33 1012.5
20260507184519 66 263 6.0 13.0 0.00 0.00 0.00 34 1012.5
20260507183031 65 269 11.0 16.0 0.00 0.00 0.00 34 1012.8
20260507181526 64 270 4.0 8.0 0.00 0.00 0.00 34 1012.8
20260507180012 65 326 3.0 9.0 0.00 0.00 0.00 34 1012.8
20260507174503 65 326 3.0 9.0 0.00 0.00 0.00 33 1012.9
20260507173003 65 358 4.0 12.0 0.00 0.00 0.00 33 1012.9
20260507171508 65 349 5.0 10.0 0.00 0.00 0.00 34 1013.1
20260507170016 65 1 4.0 9.0 0.00 0.00 0.00 34 1013.0
20260507164504 64 360 6.0 12.0 0.00 0.00 0.00 34 1013.0
20260507163004 64 311 2.0 9.0 0.00 0.00 0.00 36 1013.1
20260507161505 62 222 4.0 10.0 0.00 0.00 0.00 37 1013.1
20260507160016 61 293 3.0 6.0 0.00 0.00 0.00 38 1013.1
20260507154528 59 288 1.0 4.0 0.00 0.00 0.00 38 1013.1
20260507153004 58 338 0.0 3.0 0.00 0.00 0.00 39 1013.1
20260507151505 57 254 2.0 5.0 0.00 0.00 0.00 41 1013.1
20260507150008 56 281 1.0 4.0 0.00 0.00 0.00 42 1013.2
20260507144514 55 279 2.0 6.0 0.00 0.00 0.00 43 1013.2
20260507143025 52 288 2.0 6.0 0.00 0.00 0.00 45 1013.3
20260507141505 49 305 2.0 5.0 0.00 0.00 0.00 47 1013.3
20260507140010 47 335 1.0 3.0 0.00 0.00 0.00 48 1013.2
20260507134512 46 319 1.0 2.0 0.00 0.00 0.00 50 1013.1
20260507133019 45 311 0.0 2.0 0.00 0.00 0.00 51 1012.9
20260507131525 44 359 0.0 2.0 0.00 0.00 0.00 51 1012.8
20260507130012 44 5 1.0 3.0 0.00 0.00 0.00 50 1012.6
20260507124516 43 359 1.0 2.0 0.00 0.00 0.00 51 1012.5
20260507123015 43 360 0.0 3.0 0.00 0.00 0.00 51 1012.2
20260507121520 42 47 2.0 4.0 0.00 0.00 0.00 53 1012.1
20260507120025 43 47 1.0 2.0 0.00 0.00 0.00 51 1011.9
20260507114508 44 47 0.0 0.0 0.00 0.00 0.00 50 1011.7
20260507113014 45 52 2.0 8.0 0.00 0.00 0.00 48 1011.8
20260507111520 46 239 0.0 2.0 0.00 0.00 0.00 48 1011.4
20260507110023 46 239 0.0 3.0 0.00 0.00 0.00 48 1011.2
20260507104527 44 229 3.0 4.0 0.00 0.00 0.00 52 1011.3
20260507103025 43 158 0.0 2.0 0.00 0.00 0.00 50 1011.5
20260507101519 43 158 1.0 2.0 0.00 0.00 0.00 49 1011.4
20260507100027 45 77 0.0 2.0 0.00 0.00 0.00 48 1011.4